Pittsburgh, PA

12:09 AM EST on December 16, 2019 (GMT -0500)
Pittsburgh International

Weather History for KPIT - October, 2019

Change the Weather History Date:

Saturday, October 12, 2019

  Actual Average Record
Temperature  
Mean Temperature 51 °F 54 °F  
Max Temperature 63 °F 64 °F 85 °F (1879)
Min Temperature 39 °F 44 °F 26 °F (1964)
Degree Days  
Heating Degree Days 14 11  
Month to date heating degree days 71 117  
Since 1 July heating degree days 79 231  
Cooling Degree Days 0 0  
Month to date cooling degree days 37 6  
Year to date cooling degree days 934 734  
Growing Degree Days 1 (Base 50)    
Moisture  
Dew Point 42 °F    
Average Humidity 69    
Maximum Humidity 93    
Minimum Humidity 40    
Precipitation  
Precipitation 0.03 in 0.07 in 1.18 in (1927)
Month to date precipitation 1.97 0.88  
Year to date precipitation 42.06 30.70  
Snow  
Snow 0.00 in 0.00 in T in (1921)
Month to date snowfall 0.0 0.0  
Snow Depth 0.00 in    
Sea Level Pressure  
Sea Level Pressure 30.03 in    
Wind  
Wind Speed 8 mph ()    
Max Wind Speed 21 mph    
Max Gust Speed 26 mph    
Visibility 9.4 miles    
Events Rain    
T = Trace of Precipitation, MM = Missing Value Source: Averaged Metar Reports

Daily Weather History Graph

Daily Weather History Graph

Search for Another Location

Airport or City:

Astronomy

Oct. 12, 2019 Rise Set
Actual Time 7:28 AM EDT 6:45 PM EDT
Civil Twilight 7:01 AM EDT 7:13 PM EDT
Nautical Twilight 6:29 AM EDT 7:44 PM EDT
Astronomical Twilight 5:57 AM EDT 8:16 PM EDT
Moon 6:41 PM EDT (10/12) 6:03 AM EDT (10/12)
Length of Visible Light 12h 12m
Length of Day
11h 17m
Waxing Gibbous, 99% of the Moon is Illuminated
Oct 12
Waxing Gibbous
Oct 13
Full
Oct 21
Last Quarter
Oct 27
New
Nov 4
First Quarter

Hourly Weather History & Observations

Time (EDT) Temp. Windchill Dew Point Humidity Pressure Visibility Wind Dir Wind Speed Gust Speed Precip Events Conditions
12:51 AM 63.0 °F - 46.0 °F 54% 29.95 in 10.0 mi SSE 8.1 mph - N/A   Overcast
1:51 AM 63.0 °F - 45.0 °F 52% 29.92 in 10.0 mi SSE 8.1 mph - N/A   Overcast
2:51 AM 63.0 °F - 45.0 °F 52% 29.91 in 10.0 mi SE 6.9 mph - N/A   Overcast
3:51 AM 62.1 °F - 46.0 °F 56% 29.90 in 10.0 mi SE 5.8 mph - 0.00 in Rain Light Rain
4:51 AM 61.0 °F - 46.9 °F 60% 29.90 in 10.0 mi NW 3.5 mph - 0.00 in   Overcast
5:51 AM 60.1 °F - 48.0 °F 64% 29.90 in 10.0 mi Calm Calm - 0.00 in Rain Light Rain
6:51 AM 57.9 °F - 52.0 °F 81% 29.94 in 10.0 mi West 12.7 mph - 0.00 in   Overcast
7:12 AM 57.0 °F - 54.0 °F 89% 29.94 in 10.0 mi WNW 19.6 mph - 0.00 in Rain Light Rain
7:51 AM 53.1 °F - 51.1 °F 93% 29.98 in 6.0 mi WNW 16.1 mph - 0.00 in Rain Light Rain
8:51 AM 51.1 °F - 48.9 °F 92% 30.01 in 4.0 mi WNW 15.0 mph - 0.01 in Rain Light Rain
9:33 AM 50.0 °F - 48.0 °F 93% 30.01 in 7.0 mi WNW 13.8 mph - 0.00 in Rain Light Rain
9:51 AM 50.0 °F - 48.0 °F 93% 30.05 in 7.0 mi WNW 11.5 mph - 0.01 in Rain Light Rain
10:13 AM 50.0 °F - 48.0 °F 93% 30.03 in 10.0 mi WNW 13.8 mph - 0.01 in Rain Light Rain
10:51 AM 48.9 °F - 46.0 °F 90% 30.07 in 10.0 mi West 12.7 mph - 0.01 in   Overcast
11:51 AM 46.9 °F - 44.1 °F 90% 30.09 in 10.0 mi West 12.7 mph - N/A   Overcast
12:29 PM 48.0 °F - 41.0 °F 77% 30.08 in 10.0 mi West 11.5 mph - N/A   Mostly Cloudy
12:51 PM 48.0 °F - 41.0 °F 77% 30.10 in 10.0 mi West 11.5 mph - N/A   Mostly Cloudy
1:05 PM 50.0 °F - 41.0 °F 71% 30.08 in 10.0 mi West 10.4 mph - N/A   Scattered Clouds
1:51 PM 52.0 °F - 36.0 °F 54% 30.08 in 10.0 mi SW 12.7 mph - N/A   Scattered Clouds
2:51 PM 54.0 °F - 34.0 °F 47% 30.06 in 10.0 mi WSW 10.4 mph - N/A   Partly Cloudy
3:51 PM 55.9 °F - 34.0 °F 44% 30.07 in 10.0 mi West 9.2 mph - N/A   Partly Cloudy
4:51 PM 55.0 °F - 30.9 °F 40% 30.08 in 10.0 mi SW 8.1 mph - N/A   Partly Cloudy
5:51 PM 54.0 °F - 30.0 °F 40% 30.08 in 10.0 mi SW 8.1 mph - N/A   Partly Cloudy
6:51 PM 51.1 °F - 32.0 °F 48% 30.09 in 10.0 mi WSW 5.8 mph - N/A   Clear
7:51 PM 46.9 °F - 34.0 °F 61% 30.11 in 10.0 mi WSW 4.6 mph - N/A   Clear
8:51 PM 46.0 °F 43.9 °F 33.1 °F 61% 30.12 in 10.0 mi WSW 4.6 mph - N/A   Clear
9:51 PM 44.1 °F - 34.0 °F 68% 30.13 in 10.0 mi Calm Calm - N/A   Clear
10:51 PM 41.0 °F 39.0 °F 34.0 °F 76% 30.13 in 10.0 mi SSE 3.5 mph - N/A   Clear
11:51 PM 39.0 °F 36.8 °F 34.0 °F 82% 30.12 in 10.0 mi SSE 3.5 mph - N/A   Clear